EHI
22 20 16 11 6 2 1 3 3 3 4 6 8 9 10 8 6 8 10 9 9 10 9 7 6 5 4 3 3 2 1 1 1 1 0 0 0 0 0 0 0 0 0
23 22 19 15 9 5 3 2 2 2 4 7 9 10 10 9 8 9 10 10 10 9 8 7 6 5 4 3 3 3 3 3 2 2 1 0 0 0 0 0 0 0 0
25 24 23 18 13 9 7 5 4 4 7 9 11 11 10 9 9 10 11 11 11 8 7 6 6 6 5 4 4 4 5 4 3 3 1 1 0 0 0 0 0 0 0
25 24 22 18 12 10 10 9 8 9 11 13 12 12 11 10 8 8 8 9 8 6 6 6 6 6 6 6 6 6 6 5 4 3 3 2 1 0 0 0 0 0 0
26 25 21 15 10 9 10 12 12 12 13 14 13 12 12 10 6 5 5 6 6 5 5 6 7 7 6 6 6 6 6 5 4 3 3 3 1 0 0 0 0 0 0
27 25 21 14 11 11 12 13 15 15 15 15 15 13 12 9 6 3 3 4 4 5 5 6 8 8 7 6 5 5 4 3 3 3 3 3 2 1 0 0 0 0 0
25 23 18 14 11 12 13 14 16 17 17 17 17 15 13 10 5 2 1 2 4 4 4 6 7 8 8 7 5 3 2 2 1 2 3 4 3 1 0 0 1 0 0
20 19 16 14 13 12 11 13 15 17 18 19 18 17 16 11 6 2 0 1 3 3 3 4 6 7 7 6 5 2 2 1 1 1 1 2 2 1 0 0 0 0 0
19 18 17 17 17 13 11 11 13 15 17 17 16 17 17 13 6 1 0 2 4 4 3 3 3 4 3 3 2 1 1 1 0 0 0 1 1 1 0 0 0 0 0
19 20 21 21 19 16 14 14 15 15 14 13 12 14 16 12 6 1 2 6 8 7 4 1 1 1 1 0 0 0 0 0 0 0 0 0 0 0 0 0 0 0 0
18 20 21 20 16 15 16 17 18 16 13 11 9 10 11 9 5 1 2 8 11 10 6 2 0 0 0 0 0 0 0 0 0 0 0 0 0 0 0 0 0 0 0
13 15 16 15 12 12 14 16 17 17 15 12 9 8 7 6 4 1 1 4 9 11 9 4 1 0 0 0 0 0 0 0 0 0 0 0 0 0 0 0 0 0 0
8 9 10 10 9 9 11 13 14 15 15 13 11 9 7 6 5 3 1 1 4 7 7 4 1 0 0 0 0 0 0 0 0 0 0 0 0 0 0 0 0 0 0
6 6 6 6 7 8 10 11 11 12 13 14 14 13 11 9 7 6 3 1 2 3 3 2 0 0 0 0 0 0 0 0 0 0 0 0 0 0 0 0 0 0 0
5 5 5 5 6 6 6 6 7 9 11 13 13 14 13 10 7 7 5 3 2 1 1 0 0 0 0 0 0 0 0 0 0 0 0 0 0 0 0 0 0 0 0
3 4 5 5 5 3 2 2 3 5 7 8 8 9 9 7 5 4 4 3 2 1 0 0 0 0 0 1 1 0 0 0 0 0 0 0 0 0 0 0 0 0 0
5 5 5 4 3 2 1 1 2 2 3 3 3 3 3 3 2 1 1 1 0 0 0 0 0 1 1 1 2 1 1 0 0 0 0 0 0 0 0 0 0 0 0
6 6 5 4 3 2 2 2 3 2 3 3 1 0 0 0 0 0 0 0 0 0 0 0 0 0 0 1 2 3 2 1 0 0 0 1 1 0 0 0 0 0 0
5 5 6 5 3 2 2 3 3 3 3 3 2 1 0 0 0 0 0 0 0 0 0 0 0 0 0 1 2 3 4 3 1 1 1 2 1 0 0 0 0 0 0
4 4 5 5 4 3 3 3 3 3 3 3 2 1 0 0 0 0 0 1 0 0 0 0 0 0 0 0 1 3 4 4 3 2 2 2 1 0 0 0 0 0 0
3 3 4 4 3 3 3 3 3 3 2 2 1 1 0 0 0 0 0 0 0 0 0 0 0 0 0 0 1 2 3 4 3 3 2 1 0 0 1 1 1 1 0
3 3 3 2 2 2 2 2 2 1 1 1 0 0 0 0 0 0 0 0 0 0 0 0 0 0 0 0 1 2 3 3 3 2 1 0 1 1 2 2 2 1 1
2 2 1 1 1 1 1 1 1 0 0 0 0 0 0 0 0 0 0 0 0 0 0 0 0 0 0 0 1 1 1 1 2 1 0 0 1 2 2 2 2 1 0
1 1 0 0 0 0 0 0 0 0 0 0 0 0 0 0 0 0 0 0 0 0 0 0 0 0 0 0 0 0 0 0 0 0 0 0 1 1 1 1 1 0 0
0 0 0 0 0 0 0 0 0 0 0 0 0 0 0 0 0 0 0 0 0 0 0 0 0 0 0 0 0 0 0 0 0 0 0 0 0 0 0 0 0 0 0
0 0 0 0 0 0 0 0 0 0 0 0 0 0 0 0 0 0 0 0 0 0 0 0 0 0 0 0 0 0 0 0 0 0 0 0 0 0 0 0 0 0 0
Wind_Speed
7 7 6 6 6 5 4 5 4 4 4 4 4 4 4 4 4 4 4 4 4 4 3 4 4 3 3 2 2 2 2 3 3 2 1 1 0 0 1 1 1 1 1
7 7 6 5 5 5 5 5 4 4 4 5 4 4 5 4 4 5 5 5 5 5 5 5 5 3 3 2 2 2 3 3 3 3 1 1 1 1 0 0 0 0 0
7 6 5 4 5 5 5 5 4 5 5 5 4 4 4 4 4 4 5 5 5 5 5 5 5 4 4 3 3 3 2 2 2 2 2 1 1 1 0 0 0 0 0
5 5 4 4 4 5 5 5 5 5 5 4 4 4 4 4 4 4 4 4 5 4 4 5 5 5 5 4 4 4 3 3 2 2 2 1 1 1 1 1 0 0 1
5 5 5 4 4 4 4 5 4 4 4 4 4 4 4 4 4 4 4 5 5 4 4 4 5 6 6 5 4 4 4 3 3 3 2 1 1 1 2 1 1 0 1
5 5 4 4 4 5 5 4 4 4 4 4 4 4 4 4 5 7 6 5 5 5 5 4 4 5 6 6 7 6 6 5 5 4 3 3 3 2 2 1 1 1 1
3 3 3 3 3 3 3 3 4 3 4 4 4 4 5 6 7 8 8 6 5 5 5 4 4 4 5 4 5 5 5 6 7 5 5 5 4 4 3 3 2 2 2
4 3 4 4 3 3 3 3 3 3 3 3 4 5 5 5 7 8 8 6 5 6 6 6 5 5 5 5 5 4 3 3 5 4 4 4 4 4 4 4 3 2 0
4 4 4 4 3 3 3 4 3 3 3 3 3 4 5 5 7 8 7 5 4 5 5 5 6 6 6 7 5 5 3 2 2 3 3 3 3 4 4 3 3 2 1
4 4 3 3 4 4 5 4 3 3 3 3 4 4 5 5 6 7 7 4 4 4 4 4 6 6 7 8 6 5 5 4 3 2 2 1 2 3 5 4 4 3 2
2 2 2 2 3 4 4 3 3 3 2 2 3 3 3 4 4 6 7 5 5 5 4 4 4 7 7 8 7 5 6 4 4 3 2 2 1 1 2 3 3 3 3
1 1 1 2 2 2 2 2 2 2 3 3 3 3 3 3 4 5 7 8 6 6 5 4 4 7 7 7 6 5 6 5 3 3 2 2 2 2 2 2 3 3 2
1 1 1 1 1 1 2 2 2 2 3 3 3 4 3 2 3 5 6 7 7 5 4 5 5 7 7 5 5 6 6 4 4 3 3 3 3 2 2 1 2 2 1
2 2 2 1 2 2 2 2 2 3 3 3 4 4 3 3 3 3 3 3 4 4 3 3 4 5 4 4 4 4 3 3 4 4 3 2 2 2 2 2 2 2 1
3 3 2 2 2 2 2 2 3 4 5 5 5 4 4 5 4 5 4 4 3 3 2 2 2 2 3 3 3 3 3 3 3 3 3 3 2 2 2 2 2 2 2
3 3 3 3 2 2 2 3 3 5 6 7 8 7 5 6 5 5 5 6 6 6 4 3 3 4 4 4 4 3 3 3 4 3 3 3 3 3 2 2 2 3 3
5 4 3 3 3 3 3 3 3 3 4 5 6 7 7 6 6 5 5 5 5 6 4 4 4 4 4 4 4 4 4 4 3 4 4 4 3 3 3 3 3 3 2
4 5 4 4 4 4 4 4 4 4 4 3 3 5 6 6 6 5 4 3 2 3 3 4 4 4 4 4 4 4 4 4 4 4 4 4 4 4 3 3 3 4 3
4 4 4 4 4 4 4 4 4 4 4 3 3 2 4 4 4 4 5 3 4 4 4 4 3 4 4 4 4 4 4 4 4 4 4 4 4 4 4 4 4 4 4
4 6 5 4 4 4 3 4 4 4 4 3 4 3 2 2 2 2 3 3 4 4 4 4 4 4 4 4 4 4 4 4 4 4 4 4 4 4 4 5 4 4 4
3 4 5 4 4 4 4 4 4 4 4 4 4 4 4 4 4 4 3 4 4 4 4 4 3 4 4 4 4 4 5 4 4 4 4 4 4 4 4 3 4 4 4
3 3 3 3 3 3 4 4 4 4 4 4 3 3 5 4 4 4 4 4 4 4 4 4 4 4 4 4 4 4 4 4 4 4 4 4 3 3 3 3 3 3 3
3 3 3 3 3 3 3 3 3 4 4 4 4 3 4 4 4 4 4 4 3 3 3 4 4 3 3 3 4 4 4 4 4 4 4 4 4 3 3 3 4 4 4
3 3 3 3 3 3 3 3 3 4 4 4 4 4 4 4 4 4 4 3 3 3 3 4 4 5 6 4 4 4 4 4 4 4 5 5 4 3 3 3 4 4 4
3 3 3 3 3 3 3 3 3 3 3 3 3 3 3 3 4 3 3 3 4 4 5 5 4 5 7 7 6 5 5 5 5 4 4 4 4 4 4 4 3 4 4
2 2 2 2 2 2 2 2 2 2 2 2 2 3 3 3 3 3 3 3 3 4 4 4 5 6 7 7 7 7 6 6 6 6 5 4 5 4 4 4 4 4 4
Wind_Direction
184 189 195 200 200 197 202 208 206 208 208 210 209 210 214 217 210 205 215 211 213 214 202 199 210 200 197 201 192 188 192 192 222 249 238 262 219 195 2 357 48 49 39
185 190 199 201 194 198 210 212 202 208 212 212 210 214 222 221 210 207 214 211 211 214 209 199 207 197 201 203 195 196 199 195 200 229 238 250 233 223 247 242 45 56 26
177 182 193 204 200 205 212 212 206 211 212 209 206 216 225 221 214 215 214 211 212 213 207 204 206 195 204 204 203 205 205 197 194 204 215 218 223 185 168 265 120 5 4
157 167 181 203 217 220 216 213 211 210 209 208 206 214 216 214 215 219 214 214 216 214 209 206 204 202 207 208 207 206 195 187 186 196 212 213 213 185 170 207 244 8 341
155 173 185 191 200 228 232 225 211 210 214 209 204 209 212 212 217 215 213 212 209 211 214 214 211 205 205 202 200 199 192 189 181 192 204 204 207 196 206 200 217 319 313
173 189 189 190 193 206 222 223 214 209 209 204 207 209 213 222 225 215 209 210 206 205 212 216 214 209 206 203 203 197 192 192 193 193 202 211 218 217 203 192 181 185 240
179 182 192 193 198 212 223 223 225 217 210 211 215 214 221 225 217 214 210 204 203 207 208 205 212 212 200 202 199 198 206 209 198 190 196 209 207 204 190 191 199 204 220
173 187 198 192 196 200 205 222 228 220 218 217 221 224 230 233 214 209 205 205 207 210 208 204 204 207 205 195 184 185 203 218 214 209 209 212 207 194 193 197 196 186 168
185 201 205 196 199 202 216 228 228 219 221 219 227 225 227 238 221 209 198 204 212 217 213 207 204 207 203 184 176 182 191 212 194 182 195 204 181 165 162 148 151 163 199
204 211 206 198 206 216 225 225 219 212 224 225 233 232 231 238 226 215 201 204 211 219 220 215 207 203 189 179 182 186 195 203 177 158 159 189 184 167 166 176 178 179 181
201 187 188 199 218 219 221 217 209 211 216 229 247 256 253 252 238 219 206 210 214 214 218 220 213 193 185 184 186 195 201 184 171 164 159 161 165 173 182 190 191 185 185
164 182 212 212 234 238 211 220 219 215 226 238 246 264 261 251 238 229 218 219 218 215 220 218 207 185 186 189 192 194 176 160 158 159 166 180 193 202 206 199 191 193 199
134 197 256 267 266 246 221 227 234 227 231 244 246 254 265 260 253 241 227 222 218 222 225 207 192 184 179 185 190 178 166 168 171 179 192 204 209 209 186 168 156 156 148
193 225 235 244 268 266 245 233 235 237 238 241 242 247 254 253 247 244 230 221 218 220 221 191 177 174 176 176 173 176 179 185 187 193 199 202 184 173 172 173 169 165 149
209 225 235 236 237 255 265 250 237 239 231 230 237 235 235 246 237 222 217 216 212 208 187 172 168 170 180 183 184 187 187 184 193 200 194 190 185 182 183 178 175 168 175
217 227 229 232 235 240 252 286 284 256 249 236 234 234 246 248 238 223 218 218 209 186 170 186 194 195 198 196 193 197 200 201 201 197 195 193 190 187 183 178 179 182 186
226 233 232 230 230 237 241 248 278 293 276 257 245 239 239 241 231 224 215 206 195 172 180 200 201 204 207 202 197 199 205 203 198 197 196 194 191 187 183 185 185 187 193
242 243 241 236 233 234 239 243 244 250 267 279 274 249 236 225 217 212 192 160 183 188 203 206 205 204 205 205 202 202 200 193 194 197 196 193 191 187 185 190 194 196 199
248 248 247 245 241 238 240 246 249 248 249 256 266 263 234 216 203 200 179 188 206 215 214 214 209 204 204 202 199 197 197 195 195 194 195 194 191 188 191 197 201 199 203
253 248 248 241 238 236 235 237 240 242 244 247 250 251 228 210 215 208 201 200 207 215 215 215 212 206 204 202 197 192 192 193 194 197 198 198 196 194 198 202 205 206 209
260 256 255 248 238 234 232 231 232 237 242 245 250 244 217 217 224 221 218 216 214 216 213 212 208 203 201 197 194 192 196 200 198 199 200 202 200 200 203 203 204 207 209
255 255 250 244 241 238 236 235 235 238 240 242 247 238 216 221 227 227 226 228 227 220 212 207 208 205 200 197 195 194 198 202 201 197 198 195 197 202 201 199 200 203 204
250 255 255 244 237 235 239 239 236 237 239 238 233 228 221 224 224 224 224 225 223 218 207 202 203 203 202 201 199 197 199 203 201 192 190 191 192 196 196 198 200 202 203
245 246 247 246 242 233 235 243 244 244 245 240 236 229 223 225 227 225 223 222 216 215 208 203 205 204 202 200 197 199 203 199 192 190 190 189 189 190 193 198 204 204 204
252 245 246 246 244 240 237 242 249 251 249 243 238 234 228 223 223 224 224 221 216 216 213 209 208 205 204 204 201 200 191 186 186 183 184 186 190 193 194 198 202 205 206
267 251 255 258 254 245 236 239 248 255 254 245 236 230 228 225 223 222 219 216 215 216 217 213 209 207 204 205 204 198 190 185 181 180 183 182 186 194 198 202 203 204 205